Powrót do katalogu

STARLINK-5531

AktywnyŁącznośćVLEO
NORAD 55383·PAYLOAD·🇺🇸 United States

Wystrzelony Jan 26, 2023 z Cape Canaveral Space Force Station

Loading…

Następne Przeloty (najbliższe 24 godziny)

TLE

ŚwieżeSource: CelesTrak SupGP

Epoka: Sep 14, 2026, 21:32 UTC

1 55383C 23013BE  26257.89770833 -.00017675  00000+0 -64015-3 0  2573
2 55383  43.0022 300.1789 0002288 272.2353 311.6990 15.27587675    12

Śledź STARLINK-5531 w czasie rzeczywistym z AllMySat

Download on the App Store